Time,TemperatureF,DewpointF,PressureIn,WindDirection,WindDirectionDegrees,WindSpeedMPH,WindSpeedGustMPH,Humidity,HourlyPrecipIn,Conditions,Clouds,dailyrainin,SoftwareType,DateUTC
2013-06-08 00:00:00,67.7,57.6,29.89,ENE,65,0.0,0.0,70,0.00,,,0.00,Wunderground v.1.15,2013-06-08 05:00:00,
2013-06-08 00:10:00,67.2,57.9,29.89,ENE,65,0.0,0.0,72,0.00,,,0.00,Wunderground v.1.15,2013-06-08 05:10:00,
2013-06-08 00:15:00,67.1,57.8,29.89,ENE,65,0.0,0.0,72,0.00,,,0.00,Wunderground v.1.15,2013-06-08 05:15:00,
2013-06-08 00:25:00,66.9,58.0,29.89,ENE,65,0.0,0.0,73,0.00,,,0.00,Wunderground v.1.15,2013-06-08 05:25:00,
2013-06-08 00:30:00,66.7,57.8,29.89,ENE,65,0.0,0.0,73,0.00,,,0.00,Wunderground v.1.15,2013-06-08 05:30:00,
2013-06-08 00:35:00,66.5,57.6,29.89,ENE,65,0.0,0.0,73,0.00,,,0.00,Wunderground v.1.15,2013-06-08 05:35:00,
2013-06-08 00:40:00,66.3,57.4,29.89,ENE,65,0.0,0.0,73,0.00,,,0.00,Wunderground v.1.15,2013-06-08 05:40:00,
2013-06-08 00:45:00,66.1,57.6,29.89,ENE,65,0.0,0.0,74,0.00,,,0.00,Wunderground v.1.15,2013-06-08 05:45:00,
2013-06-08 00:55:00,65.8,57.7,29.89,ENE,65,0.0,0.0,75,0.00,,,0.00,Wunderground v.1.15,2013-06-08 05:55:00,
2013-06-08 01:00:00,65.7,57.9,29.90,ENE,65,0.0,0.0,76,0.00,,,0.00,Wunderground v.1.15,2013-06-08 06:00:00,
2013-06-08 01:10:00,65.5,57.7,29.90,ENE,65,0.0,0.0,76,0.00,,,0.00,Wunderground v.1.15,2013-06-08 06:10:00,
2013-06-08 01:15:00,65.4,58.0,29.90,ENE,65,0.0,0.0,77,0.00,,,0.00,Wunderground v.1.15,2013-06-08 06:15:00,
2013-06-08 01:20:00,65.4,58.0,29.91,ENE,65,0.0,0.0,77,0.00,,,0.00,Wunderground v.1.15,2013-06-08 06:20:00,
2013-06-08 01:25:00,65.4,58.0,29.91,ENE,65,0.0,0.0,77,0.00,,,0.00,Wunderground v.1.15,2013-06-08 06:25:00,
2013-06-08 01:30:00,65.3,57.9,29.90,ENE,65,0.0,0.0,77,0.00,,,0.00,Wunderground v.1.15,2013-06-08 06:30:00,
2013-06-08 01:40:00,65.1,58.1,29.90,ENE,65,0.0,0.0,78,0.00,,,0.00,Wunderground v.1.15,2013-06-08 06:40:00,
2013-06-08 01:45:00,65.0,58.0,29.91,ENE,65,0.0,0.0,78,0.00,,,0.00,Wunderground v.1.15,2013-06-08 06:45:00,
2013-06-08 01:50:00,64.9,58.6,29.91,ENE,65,0.0,0.0,80,0.00,,,0.00,Wunderground v.1.15,2013-06-08 06:50:00,
2013-06-08 01:55:00,64.9,58.6,29.91,ENE,65,0.0,0.0,80,0.00,,,0.00,Wunderground v.1.15,2013-06-08 06:55:00,
2013-06-08 02:00:00,65.0,58.7,29.91,ENE,65,0.0,0.0,80,0.00,,,0.00,Wunderground v.1.15,2013-06-08 07:00:00,
2013-06-08 02:10:00,65.1,58.8,29.91,ENE,65,0.0,0.0,80,0.00,,,0.00,Wunderground v.1.15,2013-06-08 07:10:00,
2013-06-08 02:20:00,65.4,58.7,29.92,ENE,65,0.0,0.0,79,0.00,,,0.00,Wunderground v.1.15,2013-06-08 07:20:00,
2013-06-08 02:25:00,65.6,58.9,29.91,ENE,65,0.0,0.0,79,0.00,,,0.00,Wunderground v.1.15,2013-06-08 07:25:00,
2013-06-08 02:30:00,65.6,58.9,29.91,ENE,65,0.0,0.0,79,0.00,,,0.00,Wunderground v.1.15,2013-06-08 07:30:00,
2013-06-08 02:35:00,65.5,58.8,29.90,ENE,65,0.0,0.0,79,0.00,,,0.00,Wunderground v.1.15,2013-06-08 07:35:00,
2013-06-08 02:40:00,65.3,58.6,29.90,ENE,65,0.0,0.0,79,0.00,,,0.00,Wunderground v.1.15,2013-06-08 07:40:00,
2013-06-08 02:50:00,64.9,58.2,29.89,ENE,65,0.0,0.0,79,0.00,,,0.00,Wunderground v.1.15,2013-06-08 07:50:00,
2013-06-08 02:55:00,64.7,58.4,29.89,ENE,65,0.0,0.0,80,0.00,,,0.00,Wunderground v.1.15,2013-06-08 07:55:00,
2013-06-08 03:00:00,64.4,58.4,29.89,ENE,65,0.0,0.0,81,0.00,,,0.00,Wunderground v.1.15,2013-06-08 08:00:00,
2013-06-08 03:10:00,64.0,58.4,29.88,ENE,65,0.0,0.0,82,0.00,,,0.00,Wunderground v.1.15,2013-06-08 08:10:00,
2013-06-08 03:15:00,63.8,58.2,29.88,ENE,65,0.0,0.0,82,0.00,,,0.00,Wunderground v.1.15,2013-06-08 08:15:00,
2013-06-08 03:20:00,63.6,58.3,29.89,ENE,65,0.0,0.0,83,0.00,,,0.00,Wunderground v.1.15,2013-06-08 08:20:00,
2013-06-08 03:25:00,63.5,58.2,29.89,ENE,65,0.0,0.0,83,0.00,,,0.00,Wunderground v.1.15,2013-06-08 08:25:00,
2013-06-08 03:35:00,63.1,58.2,29.89,ENE,65,0.0,0.0,84,0.00,,,0.00,Wunderground v.1.15,2013-06-08 08:35:00,
2013-06-08 03:40:00,63.0,58.1,29.90,ENE,65,0.0,0.0,84,0.00,,,0.00,Wunderground v.1.15,2013-06-08 08:40:00,
2013-06-08 03:45:00,62.9,58.3,29.90,ENE,65,0.0,0.0,85,0.00,,,0.00,Wunderground v.1.15,2013-06-08 08:45:00,
2013-06-08 03:50:00,62.8,58.2,29.90,ENE,65,0.0,0.0,85,0.00,,,0.00,Wunderground v.1.15,2013-06-08 08:50:00,
2013-06-08 03:55:00,62.7,58.5,29.89,ENE,65,0.0,0.0,86,0.00,,,0.00,Wunderground v.1.15,2013-06-08 08:55:00,
2013-06-08 04:00:00,62.7,58.5,29.89,ENE,65,0.0,0.0,86,0.00,,,0.00,Wunderground v.1.15,2013-06-08 09:00:00,
2013-06-08 04:10:00,62.4,58.2,29.88,ENE,65,0.0,0.0,86,0.00,,,0.00,Wunderground v.1.15,2013-06-08 09:10:00,
2013-06-08 04:20:00,62.2,58.3,29.88,ENE,65,0.0,0.0,87,0.00,,,0.00,Wunderground v.1.15,2013-06-08 09:20:00,
2013-06-08 04:25:00,62.1,58.2,29.88,ENE,65,0.0,0.0,87,0.00,,,0.00,Wunderground v.1.15,2013-06-08 09:25:00,
2013-06-08 04:30:00,62.0,58.1,29.88,ENE,65,0.0,0.0,87,0.00,,,0.00,Wunderground v.1.15,2013-06-08 09:30:00,
2013-06-08 04:35:00,61.9,58.0,29.88,ENE,65,0.0,0.0,87,0.00,,,0.00,Wunderground v.1.15,2013-06-08 09:35:00,
2013-06-08 04:45:00,61.7,58.1,29.87,ENE,65,0.0,0.0,88,0.00,,,0.00,Wunderground v.1.15,2013-06-08 09:45:00,
2013-06-08 04:50:00,61.6,58.0,29.88,ENE,65,0.0,0.0,88,0.00,,,0.00,Wunderground v.1.15,2013-06-08 09:50:00,
2013-06-08 04:55:00,61.4,57.8,29.88,ENE,65,0.0,0.0,88,0.00,,,0.00,Wunderground v.1.15,2013-06-08 09:55:00,
2013-06-08 05:00:00,61.3,57.7,29.88,ENE,65,0.0,0.0,88,0.00,,,0.00,Wunderground v.1.15,2013-06-08 10:00:00,
2013-06-08 05:10:00,61.2,57.9,29.87,ENE,65,0.0,0.0,89,0.00,,,0.00,Wunderground v.1.15,2013-06-08 10:10:00,
2013-06-08 05:15:00,61.2,57.9,29.87,ENE,65,0.0,0.0,89,0.00,,,0.00,Wunderground v.1.15,2013-06-08 10:15:00,
2013-06-08 05:25:00,61.0,57.7,29.87,ENE,65,0.0,0.0,89,0.00,,,0.00,Wunderground v.1.15,2013-06-08 10:25:00,
2013-06-08 05:30:00,61.0,57.7,29.88,ENE,65,0.0,0.0,89,0.00,,,0.00,Wunderground v.1.15,2013-06-08 10:30:00,
2013-06-08 05:35:00,61.0,58.0,29.88,ENE,65,0.0,0.0,90,0.00,,,0.00,Wunderground v.1.15,2013-06-08 10:35:00,
2013-06-08 05:40:00,61.0,58.0,29.88,ENE,65,0.0,0.0,90,0.00,,,0.00,Wunderground v.1.15,2013-06-08 10:40:00,
2013-06-08 05:45:00,61.0,58.0,29.88,ENE,65,0.0,0.0,90,0.00,,,0.00,Wunderground v.1.15,2013-06-08 10:45:00,
2013-06-08 05:55:00,60.9,57.9,29.89,ENE,65,0.0,0.0,90,0.00,,,0.00,Wunderground v.1.15,2013-06-08 10:55:00,
2013-06-08 06:00:00,60.8,57.8,29.89,ENE,65,0.0,0.0,90,0.00,,,0.00,Wunderground v.1.15,2013-06-08 11:00:00,
2013-06-08 06:10:00,60.7,57.7,29.89,ENE,65,0.0,0.0,90,0.00,,,0.00,Wunderground v.1.15,2013-06-08 11:10:00,
2013-06-08 06:15:00,60.7,57.7,29.89,ENE,65,0.0,0.0,90,0.00,,,0.00,Wunderground v.1.15,2013-06-08 11:15:00,
2013-06-08 06:20:00,60.8,57.8,29.89,ENE,65,0.0,0.0,90,0.00,,,0.00,Wunderground v.1.15,2013-06-08 11:20:00,
2013-06-08 06:25:00,60.9,57.9,29.89,ENE,65,0.0,0.0,90,0.00,,,0.00,Wunderground v.1.15,2013-06-08 11:25:00,
2013-06-08 06:30:00,60.9,57.9,29.89,ENE,65,0.0,0.0,90,0.00,,,0.00,Wunderground v.1.15,2013-06-08 11:30:00,
2013-06-08 06:40:00,61.0,58.0,29.89,ENE,65,0.0,0.0,90,0.00,,,0.00,Wunderground v.1.15,2013-06-08 11:40:00,
2013-06-08 06:45:00,61.1,58.1,29.89,ENE,65,0.0,0.0,90,0.00,,,0.00,Wunderground v.1.15,2013-06-08 11:45:00,
2013-06-08 06:50:00,61.2,58.2,29.89,ENE,65,0.0,0.0,90,0.00,,,0.00,Wunderground v.1.15,2013-06-08 11:50:00,
2013-06-08 06:55:00,61.3,58.3,29.89,ENE,65,0.0,0.0,90,0.00,,,0.00,Wunderground v.1.15,2013-06-08 11:55:00,
2013-06-08 07:00:00,61.6,58.6,29.90,ENE,65,0.0,0.0,90,0.00,,,0.00,Wunderground v.1.15,2013-06-08 12:00:00,
2013-06-08 07:10:00,62.3,58.7,29.90,ENE,65,0.0,0.0,88,0.00,,,0.00,Wunderground v.1.15,2013-06-08 12:10:00,
2013-06-08 07:15:00,62.8,58.9,29.90,ENE,65,0.0,0.0,87,0.00,,,0.00,Wunderground v.1.15,2013-06-08 12:15:00,
2013-06-08 07:20:00,63.4,59.5,29.89,ENE,69,0.0,0.0,87,0.00,,,0.00,Wunderground v.1.15,2013-06-08 12:20:00,
2013-06-08 07:30:00,64.5,59.9,29.89,ENE,67,0.0,0.0,85,0.00,,,0.00,Wunderground v.1.15,2013-06-08 12:30:00,
2013-06-08 07:35:00,65.0,60.0,29.89,ENE,67,0.0,0.0,84,0.00,,,0.00,Wunderground v.1.15,2013-06-08 12:35:00,
2013-06-08 07:40:00,65.4,60.4,29.89,ENE,67,0.0,0.0,84,0.00,,,0.00,Wunderground v.1.15,2013-06-08 12:40:00,
2013-06-08 07:50:00,66.2,60.5,29.89,ENE,74,0.0,0.0,82,0.00,,,0.00,Wunderground v.1.15,2013-06-08 12:50:00,
2013-06-08 07:55:00,66.5,60.5,29.89,ENE,76,0.0,0.0,81,0.00,,,0.00,Wunderground v.1.15,2013-06-08 12:55:00,
2013-06-08 08:00:00,66.8,60.4,29.89,East,83,0.0,0.0,80,0.00,,,0.00,Wunderground v.1.15,2013-06-08 13:00:00,
2013-06-08 08:10:00,67.8,61.0,29.89,East,84,0.0,0.0,79,0.00,,,0.00,Wunderground v.1.15,2013-06-08 13:10:00,
2013-06-08 08:15:00,68.8,61.3,29.90,South,175,0.0,0.0,77,0.00,,,0.00,Wunderground v.1.15,2013-06-08 13:15:00,
2013-06-08 08:20:00,69.9,61.6,29.90,South,175,0.0,0.0,75,0.00,,,0.00,Wunderground v.1.15,2013-06-08 13:20:00,
2013-06-08 08:25:00,71.1,62.0,29.90,WSW,245,0.0,0.0,73,0.00,,,0.00,Wunderground v.1.15,2013-06-08 13:25:00,
2013-06-08 08:35:00,73.0,61.8,29.91,SSW,208,0.0,0.0,68,0.00,,,0.00,Wunderground v.1.15,2013-06-08 13:35:00,
2013-06-08 08:40:00,73.3,61.7,29.91,SSW,202,0.0,0.0,67,0.00,,,0.00,Wunderground v.1.15,2013-06-08 13:40:00,
2013-06-08 08:45:00,73.5,61.0,29.91,South,184,1.0,7.0,65,0.00,,,0.00,Wunderground v.1.15,2013-06-08 13:45:00,
2013-06-08 08:50:00,73.5,61.0,29.91,South,182,2.0,2.0,65,0.00,,,0.00,Wunderground v.1.15,2013-06-08 13:50:00,
2013-06-08 08:55:00,73.7,61.6,29.91,SSW,209,1.0,2.0,66,0.00,,,0.00,Wunderground v.1.15,2013-06-08 13:55:00,
2013-06-08 09:00:00,73.9,61.8,29.91,SSW,196,1.0,1.0,66,0.00,,,0.00,Wunderground v.1.15,2013-06-08 14:00:00,
2013-06-08 09:10:00,74.6,61.6,29.91,South,189,1.0,2.0,64,0.00,,,0.00,Wunderground v.1.15,2013-06-08 14:10:00,
2013-06-08 09:15:00,75.1,62.1,29.91,SSW,194,2.0,2.0,64,0.00,,,0.00,Wunderground v.1.15,2013-06-08 14:15:00,
2013-06-08 09:25:00,76.7,63.2,29.90,South,173,1.0,1.0,63,0.00,,,0.00,Wunderground v.1.15,2013-06-08 14:25:00,
2013-06-08 09:30:00,77.4,62.4,29.91,South,174,3.0,3.0,60,0.00,,,0.00,Wunderground v.1.15,2013-06-08 14:30:00,
2013-06-08 09:35:00,78.0,63.0,29.91,SSE,157,4.0,4.0,60,0.00,,,0.00,Wunderground v.1.15,2013-06-08 14:35:00,
2013-06-08 09:40:00,78.5,63.0,29.91,SSE,164,2.0,7.0,59,0.00,,,0.00,Wunderground v.1.15,2013-06-08 14:40:00,
2013-06-08 09:45:00,79.0,63.4,29.91,SSE,156,3.0,7.0,59,0.00,,,0.00,Wunderground v.1.15,2013-06-08 14:45:00,
2013-06-08 09:55:00,79.8,62.7,29.91,SSE,150,3.0,6.0,56,0.00,,,0.00,Wunderground v.1.15,2013-06-08 14:55:00,
2013-06-08 10:00:00,80.3,63.2,29.91,SSW,203,3.0,3.0,56,0.00,,,0.00,Wunderground v.1.15,2013-06-08 15:00:00,
2013-06-08 10:10:00,80.6,60.2,29.91,SSE,164,5.0,5.0,50,0.00,,,0.00,Wunderground v.1.15,2013-06-08 15:10:00,
2013-06-08 10:15:00,80.6,60.2,29.90,SSE,168,8.0,8.0,50,0.00,,,0.00,Wunderground v.1.15,2013-06-08 15:15:00,
2013-06-08 10:20:00,80.4,59.5,29.90,South,173,8.0,11.0,49,0.00,,,0.00,Wunderground v.1.15,2013-06-08 15:20:00,
2013-06-08 10:25:00,80.2,59.9,29.90,South,178,8.0,11.0,50,0.00,,,0.00,Wunderground v.1.15,2013-06-08 15:25:00,
2013-06-08 10:30:00,80.2,59.3,29.90,SSE,153,8.0,8.0,49,0.00,,,0.00,Wunderground v.1.15,2013-06-08 15:30:00,
2013-06-08 10:40:00,80.7,61.4,29.89,South,175,7.0,11.0,52,0.00,,,0.00,Wunderground v.1.15,2013-06-08 15:40:00,
2013-06-08 10:45:00,81.4,59.2,29.88,SSE,157,6.0,11.0,47,0.00,,,0.00,Wunderground v.1.15,2013-06-08 15:45:00,
2013-06-08 10:50:00,81.3,58.5,29.88,SSW,204,8.0,10.0,46,0.00,,,0.00,Wunderground v.1.15,2013-06-08 15:50:00,
2013-06-08 10:55:00,81.2,60.8,29.88,SSE,159,8.0,10.0,50,0.00,,,0.00,Wunderground v.1.15,2013-06-08 15:55:00,
2013-06-08 11:00:00,81.5,60.5,29.88,SSE,149,7.0,7.0,49,0.00,,,0.00,Wunderground v.1.15,2013-06-08 16:00:00,
2013-06-08 11:10:00,81.7,60.1,29.88,South,178,9.0,11.0,48,0.00,,,0.00,Wunderground v.1.15,2013-06-08 16:10:00,
2013-06-08 11:20:00,82.1,61.0,29.88,SE,141,9.0,9.0,49,0.00,,,0.00,Wunderground v.1.15,2013-06-08 16:20:00,
2013-06-08 11:25:00,82.1,60.5,29.88,ESE,123,8.0,9.0,48,0.00,,,0.00,Wunderground v.1.15,2013-06-08 16:25:00,
2013-06-08 11:30:00,82.2,61.1,29.88,SSE,159,9.0,12.0,49,0.00,,,0.00,Wunderground v.1.15,2013-06-08 16:30:00,
2013-06-08 11:35:00,82.4,61.3,29.88,SE,139,8.0,12.0,49,0.00,,,0.00,Wunderground v.1.15,2013-06-08 16:35:00,
2013-06-08 11:40:00,82.9,60.6,29.88,SSE,156,7.0,10.0,47,0.00,,,0.00,Wunderground v.1.15,2013-06-08 16:40:00,
2013-06-08 11:50:00,83.0,62.4,29.88,SSE,151,10.0,10.0,50,0.00,,,0.00,Wunderground v.1.15,2013-06-08 16:50:00,
2013-06-08 11:55:00,83.0,61.9,29.88,SE,141,11.0,11.0,49,0.00,,,0.00,Wunderground v.1.15,2013-06-08 16:55:00,
2013-06-08 12:00:00,83.2,60.9,29.88,SSE,167,9.0,9.0,47,0.00,,,0.00,Wunderground v.1.15,2013-06-08 17:00:00,
2013-06-08 12:10:00,83.9,62.1,29.88,SE,138,8.0,8.0,48,0.00,,,0.00,Wunderground v.1.15,2013-06-08 17:10:00,
2013-06-08 12:15:00,84.2,62.4,29.88,SSE,165,6.0,8.0,48,0.00,,,0.00,Wunderground v.1.15,2013-06-08 17:15:00,
2013-06-08 12:20:00,84.3,61.9,29.88,SE,142,5.0,6.0,47,0.00,,,0.00,Wunderground v.1.15,2013-06-08 17:20:00,
2013-06-08 12:25:00,83.9,60.3,29.88,South,175,7.0,7.0,45,0.00,,,0.00,Wunderground v.1.15,2013-06-08 17:25:00,
2013-06-08 12:35:00,84.6,62.1,29.87,South,171,4.0,11.0,47,0.00,,,0.00,Wunderground v.1.15,2013-06-08 17:35:00,
2013-06-08 12:40:00,84.1,62.3,29.86,South,171,6.0,7.0,48,0.00,,,0.00,Wunderground v.1.15,2013-06-08 17:40:00,
2013-06-08 12:45:00,84.2,61.8,29.86,SE,134,7.0,7.0,47,0.00,,,0.00,Wunderground v.1.15,2013-06-08 17:45:00,
2013-06-08 12:50:00,84.7,61.0,29.86,South,186,7.0,7.0,45,0.00,,,0.00,Wunderground v.1.15,2013-06-08 17:50:00,
2013-06-08 12:55:00,84.6,62.1,29.86,SSE,156,7.0,12.0,47,0.00,,,0.00,Wunderground v.1.15,2013-06-08 17:55:00,
2013-06-08 13:00:00,84.7,61.0,29.85,South,172,8.0,12.0,45,0.00,,,0.00,Wunderground v.1.15,2013-06-08 18:00:00,
2013-06-08 13:10:00,85.2,62.7,29.85,SE,142,8.0,10.0,47,0.00,,,0.00,Wunderground v.1.15,2013-06-08 18:10:00,
2013-06-08 13:20:00,85.4,63.5,29.85,SSE,150,9.0,10.0,48,0.00,,,0.00,Wunderground v.1.15,2013-06-08 18:20:00,
2013-06-08 13:25:00,85.6,61.2,29.85,SSE,156,7.0,10.0,44,0.00,,,0.00,Wunderground v.1.15,2013-06-08 18:25:00,
2013-06-08 13:30:00,85.4,63.5,29.85,South,188,6.0,7.0,48,0.00,,,0.00,Wunderground v.1.15,2013-06-08 18:30:00,
2013-06-08 13:35:00,85.9,63.3,29.85,SSW,202,6.0,7.0,47,0.00,,,0.00,Wunderground v.1.15,2013-06-08 18:35:00,
2013-06-08 13:45:00,86.2,63.0,29.85,SE,130,6.0,9.0,46,0.00,,,0.00,Wunderground v.1.15,2013-06-08 18:45:00,
2013-06-08 13:50:00,86.3,62.5,29.84,SSE,159,6.0,7.0,45,0.00,,,0.00,Wunderground v.1.15,2013-06-08 18:50:00,
2013-06-08 13:55:00,86.2,61.7,29.84,SSE,151,6.0,9.0,44,0.00,,,0.00,Wunderground v.1.15,2013-06-08 18:55:00,
2013-06-08 14:00:00,86.5,63.3,29.84,South,180,5.0,8.0,46,0.00,,,0.00,Wunderground v.1.15,2013-06-08 19:00:00,
2013-06-08 14:10:00,86.9,63.6,29.84,SSE,156,7.0,7.0,46,0.00,,,0.00,Wunderground v.1.15,2013-06-08 19:10:00,
2013-06-08 14:15:00,86.8,64.8,29.84,SSE,157,5.0,9.0,48,0.00,,,0.00,Wunderground v.1.15,2013-06-08 19:15:00,
2013-06-08 14:20:00,86.9,63.0,29.84,South,179,6.0,7.0,45,0.00,,,0.00,Wunderground v.1.15,2013-06-08 19:20:00,
2013-06-08 14:30:00,86.4,61.9,29.84,South,183,7.0,7.0,44,0.00,,,0.00,Wunderground v.1.15,2013-06-08 19:30:00,
2013-06-08 14:35:00,86.8,63.5,29.83,SE,144,5.0,12.0,46,0.00,,,0.00,Wunderground v.1.15,2013-06-08 19:35:00,
2013-06-08 14:40:00,86.8,62.3,29.83,SE,139,6.0,6.0,44,0.00,,,0.00,Wunderground v.1.15,2013-06-08 19:40:00,
2013-06-08 14:45:00,87.1,64.4,29.83,SSW,205,7.0,7.0,47,0.00,,,0.00,Wunderground v.1.15,2013-06-08 19:45:00,
2013-06-08 14:50:00,87.6,65.5,29.83,SSE,163,4.0,9.0,48,0.00,,,0.00,Wunderground v.1.15,2013-06-08 19:50:00,
2013-06-08 15:00:00,88.2,64.2,29.83,SSE,151,6.0,10.0,45,0.00,,,0.00,Wunderground v.1.15,2013-06-08 20:00:00,
2013-06-08 15:10:00,88.5,65.1,29.82,SSE,159,5.0,5.0,46,0.00,,,0.00,Wunderground v.1.15,2013-06-08 20:10:00,
2013-06-08 15:15:00,88.4,64.4,29.82,SSW,192,6.0,6.0,45,0.00,,,0.00,Wunderground v.1.15,2013-06-08 20:15:00,
2013-06-08 15:20:00,88.5,63.8,29.81,SSW,192,6.0,6.0,44,0.00,,,0.00,Wunderground v.1.15,2013-06-08 20:20:00,
2013-06-08 15:25:00,88.7,64.6,29.82,SSE,157,4.0,6.0,45,0.00,,,0.00,Wunderground v.1.15,2013-06-08 20:25:00,
2013-06-08 15:30:00,89.3,65.2,29.81,SSE,161,4.0,4.0,45,0.00,,,0.00,Wunderground v.1.15,2013-06-08 20:30:00,
2013-06-08 15:35:00,89.1,65.0,29.81,SE,140,8.0,8.0,45,0.00,,,0.00,Wunderground v.1.15,2013-06-08 20:35:00,
2013-06-08 15:45:00,88.8,64.7,29.80,ESE,121,10.0,13.0,45,0.00,,,0.00,Wunderground v.1.15,2013-06-08 20:45:00,
2013-06-08 15:50:00,88.7,63.3,29.80,SSE,151,9.0,9.0,43,0.00,,,0.00,Wunderground v.1.15,2013-06-08 20:50:00,
2013-06-08 15:55:00,88.7,64.6,29.80,South,177,8.0,9.0,45,0.00,,,0.00,Wunderground v.1.15,2013-06-08 20:55:00,
2013-06-08 16:00:00,89.1,65.0,29.80,SSE,163,7.0,13.0,45,0.00,,,0.00,Wunderground v.1.15,2013-06-08 21:00:00,
2013-06-08 16:10:00,89.0,64.3,29.80,SSE,161,7.0,7.0,44,0.00,,,0.00,Wunderground v.1.15,2013-06-08 21:10:00,
2013-06-08 16:15:00,88.7,63.3,29.80,South,181,7.0,7.0,43,0.00,,,0.00,Wunderground v.1.15,2013-06-08 21:15:00,
2013-06-08 16:25:00,89.1,63.7,29.79,SE,131,8.0,14.0,43,0.00,,,0.00,Wunderground v.1.15,2013-06-08 21:25:00,
2013-06-08 16:30:00,88.9,62.8,29.79,SE,135,9.0,9.0,42,0.00,,,0.00,Wunderground v.1.15,2013-06-08 21:30:00,
2013-06-08 16:35:00,88.8,62.7,29.79,SE,144,8.0,11.0,42,0.00,,,0.00,Wunderground v.1.15,2013-06-08 21:35:00,
2013-06-08 16:40:00,88.6,63.9,29.79,SE,144,7.0,7.0,44,0.00,,,0.00,Wunderground v.1.15,2013-06-08 21:40:00,
2013-06-08 16:45:00,88.8,63.4,29.79,SSE,159,7.0,9.0,43,0.00,,,0.00,Wunderground v.1.15,2013-06-08 21:45:00,
2013-06-08 16:55:00,88.6,63.2,29.78,SE,146,8.0,10.0,43,0.00,,,0.00,Wunderground v.1.15,2013-06-08 21:55:00,
2013-06-08 17:00:00,88.7,62.7,29.78,SSE,165,8.0,8.0,42,0.00,,,0.00,Wunderground v.1.15,2013-06-08 22:00:00,
2013-06-08 17:10:00,89.2,63.1,29.78,SSE,155,9.0,11.0,42,0.00,,,0.00,Wunderground v.1.15,2013-06-08 22:10:00,
2013-06-08 17:15:00,89.3,63.2,29.78,SE,146,9.0,11.0,42,0.00,,,0.00,Wunderground v.1.15,2013-06-08 22:15:00,
2013-06-08 17:20:00,89.2,62.4,29.78,SSE,158,8.0,13.0,41,0.00,,,0.00,Wunderground v.1.15,2013-06-08 22:20:00,
2013-06-08 17:25:00,89.0,62.9,29.77,SE,140,8.0,13.0,42,0.00,,,0.00,Wunderground v.1.15,2013-06-08 22:25:00,
2013-06-08 17:30:00,89.0,62.2,29.77,SE,142,8.0,8.0,41,0.00,,,0.00,Wunderground v.1.15,2013-06-08 22:30:00,
2013-06-08 17:40:00,89.5,64.0,29.77,SE,146,7.0,9.0,43,0.00,,,0.00,Wunderground v.1.15,2013-06-08 22:40:00,
2013-06-08 17:45:00,89.5,62.7,29.77,ESE,119,7.0,9.0,41,0.00,,,0.00,Wunderground v.1.15,2013-06-08 22:45:00,
2013-06-08 17:50:00,89.3,63.9,29.76,SSE,151,8.0,9.0,43,0.00,,,0.00,Wunderground v.1.15,2013-06-08 22:50:00,
2013-06-08 17:55:00,89.0,62.2,29.76,SSE,164,7.0,12.0,41,0.00,,,0.00,Wunderground v.1.15,2013-06-08 22:55:00,
2013-06-08 18:00:00,88.8,62.7,29.76,SSE,156,7.0,10.0,42,0.00,,,0.00,Wunderground v.1.15,2013-06-08 23:00:00,
2013-06-08 18:10:00,88.6,63.2,29.76,SSE,153,8.0,14.0,43,0.00,,,0.00,Wunderground v.1.15,2013-06-08 23:10:00,
2013-06-08 18:15:00,88.4,62.4,29.76,SE,129,9.0,14.0,42,0.00,,,0.00,Wunderground v.1.15,2013-06-08 23:15:00,
2013-06-08 18:25:00,88.3,63.0,29.76,SE,125,7.0,12.0,43,0.00,,,0.00,Wunderground v.1.15,2013-06-08 23:25:00,
2013-06-08 18:30:00,88.3,62.3,29.76,South,176,9.0,9.0,42,0.00,,,0.00,Wunderground v.1.15,2013-06-08 23:30:00,
2013-06-08 18:35:00,87.9,61.9,29.76,SE,145,9.0,9.0,42,0.00,,,0.00,Wunderground v.1.15,2013-06-08 23:35:00,
2013-06-08 18:45:00,87.1,61.9,29.76,SE,144,8.0,10.0,43,0.00,,,0.00,Wunderground v.1.15,2013-06-08 23:45:00,
2013-06-08 18:50:00,86.8,61.6,29.76,ESE,111,8.0,13.0,43,0.00,,,0.00,Wunderground v.1.15,2013-06-08 23:50:00,
2013-06-08 18:55:00,86.5,62.0,29.76,SSE,158,9.0,13.0,44,0.00,,,0.00,Wunderground v.1.15,2013-06-08 23:55:00,
2013-06-08 19:00:00,86.4,61.9,29.76,SSE,149,9.0,9.0,44,0.00,,,0.00,Wunderground v.1.15,2013-06-09 00:00:00,
2013-06-08 19:10:00,86.4,61.9,29.76,SE,142,7.0,7.0,44,0.00,,,0.00,Wunderground v.1.15,2013-06-09 00:10:00,
2013-06-08 19:15:00,86.2,62.4,29.76,SSE,148,8.0,8.0,45,0.00,,,0.00,Wunderground v.1.15,2013-06-09 00:15:00,
2013-06-08 19:20:00,85.9,62.7,29.76,SSE,157,7.0,10.0,46,0.00,,,0.00,Wunderground v.1.15,2013-06-09 00:20:00,
2013-06-08 19:30:00,85.4,61.6,29.76,South,169,7.0,7.0,45,0.00,,,0.00,Wunderground v.1.15,2013-06-09 00:30:00,
2013-06-08 19:35:00,85.2,61.5,29.76,SSE,166,7.0,8.0,45,0.00,,,0.00,Wunderground v.1.15,2013-06-09 00:35:00,
2013-06-08 19:40:00,85.0,61.9,29.76,SSE,151,7.0,7.0,46,0.00,,,0.00,Wunderground v.1.15,2013-06-09 00:40:00,
2013-06-08 19:45:00,84.9,61.8,29.76,SSE,149,5.0,7.0,46,0.00,,,0.00,Wunderground v.1.15,2013-06-09 00:45:00,
2013-06-08 19:50:00,84.7,62.2,29.76,SE,142,4.0,7.0,47,0.00,,,0.00,Wunderground v.1.15,2013-06-09 00:50:00,
2013-06-08 20:00:00,84.3,62.5,29.76,SE,130,4.0,7.0,48,0.00,,,0.00,Wunderground v.1.15,2013-06-09 01:00:00,
2013-06-08 20:10:00,83.8,63.2,29.75,SE,138,5.0,5.0,50,0.00,,,0.00,Wunderground v.1.15,2013-06-09 01:10:00,
2013-06-08 20:15:00,83.6,63.0,29.75,SE,127,4.0,5.0,50,0.00,,,0.00,Wunderground v.1.15,2013-06-09 01:15:00,
2013-06-08 20:20:00,83.3,62.7,29.76,SE,134,3.0,3.0,50,0.00,,,0.00,Wunderground v.1.15,2013-06-09 01:20:00,
2013-06-08 20:30:00,82.9,63.5,29.75,ESE,119,3.0,3.0,52,0.00,,,0.00,Wunderground v.1.15,2013-06-09 01:30:00,
2013-06-08 20:35:00,82.6,63.7,29.75,ESE,123,5.0,8.0,53,0.00,,,0.00,Wunderground v.1.15,2013-06-09 01:35:00,
2013-06-08 20:40:00,82.2,63.4,29.75,SE,130,5.0,5.0,53,0.00,,,0.00,Wunderground v.1.15,2013-06-09 01:40:00,
2013-06-08 20:45:00,82.0,63.7,29.75,SE,144,5.0,7.0,54,0.00,,,0.00,Wunderground v.1.15,2013-06-09 01:45:00,
2013-06-08 20:50:00,81.7,63.4,29.76,SE,135,4.0,4.0,54,0.00,,,0.00,Wunderground v.1.15,2013-06-09 01:50:00,
2013-06-08 21:00:00,81.2,63.5,29.76,SE,124,5.0,8.0,55,0.00,,,0.00,Wunderground v.1.15,2013-06-09 02:00:00,
2013-06-08 21:10:00,80.8,63.1,29.76,ESE,122,7.0,7.0,55,0.00,,,0.00,Wunderground v.1.15,2013-06-09 02:10:00,
2013-06-08 21:15:00,80.5,63.4,29.76,SE,133,7.0,7.0,56,0.00,,,0.00,Wunderground v.1.15,2013-06-09 02:15:00,
2013-06-08 21:20:00,80.4,63.3,29.77,ESE,118,7.0,7.0,56,0.00,,,0.00,Wunderground v.1.15,2013-06-09 02:20:00,
2013-06-08 21:25:00,80.2,63.6,29.77,ESE,122,6.0,8.0,57,0.00,,,0.00,Wunderground v.1.15,2013-06-09 02:25:00,
2013-06-08 21:30:00,79.9,63.3,29.77,ESE,113,5.0,5.0,57,0.00,,,0.00,Wunderground v.1.15,2013-06-09 02:30:00,
2013-06-08 21:35:00,79.7,63.1,29.77,SE,133,4.0,5.0,57,0.00,,,0.00,Wunderground v.1.15,2013-06-09 02:35:00,
2013-06-08 21:45:00,79.3,63.2,29.78,ESE,119,6.0,6.0,58,0.00,,,0.00,Wunderground v.1.15,2013-06-09 02:45:00,
2013-06-08 21:50:00,79.0,63.0,29.78,SE,125,7.0,9.0,58,0.00,,,0.00,Wunderground v.1.15,2013-06-09 02:50:00,
2013-06-08 21:55:00,78.8,62.8,29.78,SE,125,7.0,9.0,58,0.00,,,0.00,Wunderground v.1.15,2013-06-09 02:55:00,
2013-06-08 22:00:00,78.7,63.2,29.78,ESE,117,5.0,9.0,59,0.00,,,0.00,Wunderground v.1.15,2013-06-09 03:00:00,
2013-06-08 22:10:00,78.4,62.9,29.78,ESE,119,6.0,9.0,59,0.00,,,0.00,Wunderground v.1.15,2013-06-09 03:10:00,
2013-06-08 22:15:00,78.3,62.8,29.78,ESE,118,6.0,9.0,59,0.00,,,0.00,Wunderground v.1.15,2013-06-09 03:15:00,
2013-06-08 22:20:00,78.2,62.7,29.79,SE,124,6.0,12.0,59,0.00,,,0.00,Wunderground v.1.15,2013-06-09 03:20:00,
2013-06-08 22:30:00,78.0,62.5,29.79,SE,127,7.0,13.0,59,0.00,,,0.00,Wunderground v.1.15,2013-06-09 03:30:00,
2013-06-08 22:35:00,77.9,62.4,29.78,ESE,123,8.0,13.0,59,0.00,,,0.00,Wunderground v.1.15,2013-06-09 03:35:00,
2013-06-08 22:40:00,77.8,62.3,29.79,SE,136,8.0,9.0,59,0.00,,,0.00,Wunderground v.1.15,2013-06-09 03:40:00,
2013-06-08 22:45:00,77.7,62.2,29.79,ESE,114,7.0,9.0,59,0.00,,,0.00,Wunderground v.1.15,2013-06-09 03:45:00,
2013-06-08 22:55:00,77.5,62.5,29.79,SE,138,8.0,8.0,60,0.00,,,0.00,Wunderground v.1.15,2013-06-09 03:55:00,
2013-06-08 23:00:00,77.4,62.4,29.79,SE,136,8.0,8.0,60,0.00,,,0.00,Wunderground v.1.15,2013-06-09 04:00:00,
2013-06-08 23:05:00,77.4,62.4,29.79,SE,133,8.0,11.0,60,0.00,,,0.00,Wunderground v.1.15,2013-06-09 04:05:00,
2013-06-08 23:10:00,77.3,62.3,29.80,SE,127,7.0,8.0,60,0.00,,,0.00,Wunderground v.1.15,2013-06-09 04:10:00,
2013-06-08 23:15:00,77.3,62.3,29.80,SE,132,6.0,9.0,60,0.00,,,0.00,Wunderground v.1.15,2013-06-09 04:15:00,
2013-06-08 23:20:00,77.2,62.2,29.80,SE,135,6.0,10.0,60,0.00,,,0.00,Wunderground v.1.15,2013-06-09 04:20:00,
2013-06-08 23:25:00,77.1,62.1,29.80,SE,134,6.0,10.0,60,0.00,,,0.00,Wunderground v.1.15,2013-06-09 04:25:00,
2013-06-08 23:30:00,77.1,62.1,29.81,SE,142,5.0,5.0,60,0.00,,,0.00,Wunderground v.1.15,2013-06-09 04:30:00,
2013-06-08 23:35:00,77.0,62.0,29.81,SE,144,5.0,5.0,60,0.00,,,0.00,Wunderground v.1.15,2013-06-09 04:35:00,
2013-06-08 23:40:00,76.9,62.4,29.81,SE,132,6.0,9.0,61,0.00,,,0.00,Wunderground v.1.15,2013-06-09 04:40:00,
2013-06-08 23:45:00,76.8,62.3,29.81,SE,145,6.0,9.0,61,0.00,,,0.00,Wunderground v.1.15,2013-06-09 04:45:00,
2013-06-08 23:50:00,76.7,62.2,29.81,SSE,148,5.0,8.0,61,0.00,,,0.00,Wunderground v.1.15,2013-06-09 04:50:00,
2013-06-08 23:55:00,76.6,62.1,29.81,SE,146,5.0,8.0,61,0.00,,,0.00,Wunderground v.1.15,2013-06-09 04:55:00,